Year,Month,Day,Hour,Minute,Value (Times are PST for temperature in C)
2013,05,05,00,00,12.30
2013,05,05,00,01,12.30
2013,05,05,00,02,12.30
2013,05,05,00,03,12.30
2013,05,05,00,04,12.30
2013,05,05,00,05,12.30
2013,05,05,00,06,12.20
2013,05,05,00,07,12.20
2013,05,05,00,08,12.20
2013,05,05,00,09,12.20
2013,05,05,00,10,12.20
2013,05,05,00,11,12.10
2013,05,05,00,12,12.10
2013,05,05,00,13,12.10
2013,05,05,00,14,12.10
2013,05,05,00,15,12.00
2013,05,05,00,16,12.00
2013,05,05,00,17,12.00
2013,05,05,00,18,12.00
2013,05,05,00,19,12.00
2013,05,05,00,20,11.90
2013,05,05,00,21,11.90
2013,05,05,00,22,11.90
2013,05,05,00,23,11.80
2013,05,05,00,24,11.80
2013,05,05,00,25,11.80
2013,05,05,00,26,11.80
2013,05,05,00,27,11.80
2013,05,05,00,28,11.80
2013,05,05,00,29,11.80
2013,05,05,00,30,11.80
2013,05,05,00,31,11.80
2013,05,05,00,32,11.80
2013,05,05,00,33,11.80
2013,05,05,00,34,11.80
2013,05,05,00,35,11.80
2013,05,05,00,36,11.80
2013,05,05,00,37,11.70
2013,05,05,00,38,11.70
2013,05,05,00,39,11.70
2013,05,05,00,40,11.70
2013,05,05,00,41,11.70
2013,05,05,00,42,11.70
2013,05,05,00,43,11.60
2013,05,05,00,44,11.60
2013,05,05,00,45,11.60
2013,05,05,00,46,11.60
2013,05,05,00,47,11.60
2013,05,05,00,48,11.60
2013,05,05,00,49,11.60
2013,05,05,00,50,11.60
2013,05,05,00,51,11.60
2013,05,05,00,52,11.60
2013,05,05,00,53,11.60
2013,05,05,00,54,11.60
2013,05,05,00,55,11.60
2013,05,05,00,56,11.60
2013,05,05,00,57,11.60
2013,05,05,00,58,11.60
2013,05,05,00,59,11.60
2013,05,05,01,00,11.50
2013,05,05,01,01,11.50
2013,05,05,01,02,11.50
2013,05,05,01,03,11.40
2013,05,05,01,04,11.40
2013,05,05,01,05,11.40
2013,05,05,01,06,11.40
2013,05,05,01,07,11.40
2013,05,05,01,08,11.40
2013,05,05,01,09,11.40
2013,05,05,01,10,11.40
2013,05,05,01,11,11.40
2013,05,05,01,12,11.40
2013,05,05,01,13,11.40
2013,05,05,01,14,11.30
2013,05,05,01,15,11.30
2013,05,05,01,16,11.30
2013,05,05,01,17,11.30
2013,05,05,01,18,11.30
2013,05,05,01,19,11.30
2013,05,05,01,20,11.20
2013,05,05,01,21,11.20
2013,05,05,01,22,11.20
2013,05,05,01,23,11.20
2013,05,05,01,24,11.20
2013,05,05,01,25,11.10
2013,05,05,01,26,11.10
2013,05,05,01,27,11.10
2013,05,05,01,28,11.10
2013,05,05,01,29,11.10
2013,05,05,01,30,11.10
2013,05,05,01,31,11.10
2013,05,05,01,32,11.10
2013,05,05,01,33,11.10
2013,05,05,01,34,11.10
2013,05,05,01,35,11.10
2013,05,05,01,36,11.00
2013,05,05,01,37,10.90
2013,05,05,01,38,10.90
2013,05,05,01,39,10.90
2013,05,05,01,40,10.90
2013,05,05,01,41,10.90
2013,05,05,01,42,10.90
2013,05,05,01,43,10.90
2013,05,05,01,44,10.90
2013,05,05,01,45,10.90
2013,05,05,01,46,10.90
2013,05,05,01,47,10.90
2013,05,05,01,48,10.90
2013,05,05,01,49,10.90
2013,05,05,01,50,10.90
2013,05,05,01,51,10.90
2013,05,05,01,52,10.90
2013,05,05,01,53,10.90
2013,05,05,01,54,10.80
2013,05,05,01,55,10.80
2013,05,05,01,56,10.80
2013,05,05,01,57,10.80
2013,05,05,01,58,10.80
2013,05,05,01,59,10.80
2013,05,05,02,00,10.80
2013,05,05,02,01,10.80
2013,05,05,02,02,10.70
2013,05,05,02,03,10.70
2013,05,05,02,04,10.80
2013,05,05,02,05,10.80
2013,05,05,02,06,10.80
2013,05,05,02,07,10.80
2013,05,05,02,08,10.80
2013,05,05,02,09,10.80
2013,05,05,02,10,10.80
2013,05,05,02,11,10.80
2013,05,05,02,12,10.80
2013,05,05,02,13,10.70
2013,05,05,02,14,10.70
2013,05,05,02,15,10.70
2013,05,05,02,16,10.70
2013,05,05,02,17,10.70
2013,05,05,02,18,10.70
2013,05,05,02,19,10.70
2013,05,05,02,20,10.60
2013,05,05,02,21,10.60
2013,05,05,02,22,10.60
2013,05,05,02,23,10.60
2013,05,05,02,24,10.60
2013,05,05,02,25,10.60
2013,05,05,02,26,10.60
2013,05,05,02,27,10.60
2013,05,05,02,28,10.60
2013,05,05,02,29,10.60
2013,05,05,02,30,10.60
2013,05,05,02,31,10.60
2013,05,05,02,32,10.50
2013,05,05,02,33,10.40
2013,05,05,02,34,10.40
2013,05,05,02,35,10.40
2013,05,05,02,36,10.40
2013,05,05,02,37,10.40
2013,05,05,02,38,10.40
2013,05,05,02,39,10.40
2013,05,05,02,40,10.40
2013,05,05,02,41,10.40
2013,05,05,02,42,10.40
2013,05,05,02,43,10.40
2013,05,05,02,44,10.40
2013,05,05,02,45,10.40
2013,05,05,02,46,10.40
2013,05,05,02,47,10.40
2013,05,05,02,48,10.40
2013,05,05,02,49,10.40
2013,05,05,02,50,10.40
2013,05,05,02,51,10.30
2013,05,05,02,52,10.30
2013,05,05,02,53,10.30
2013,05,05,02,54,10.30
2013,05,05,02,55,10.30
2013,05,05,02,56,10.30
2013,05,05,02,57,10.30
2013,05,05,02,58,10.20
2013,05,05,02,59,10.20
2013,05,05,03,00,10.20
2013,05,05,03,01,10.20
2013,05,05,03,02,10.20
2013,05,05,03,03,10.20
2013,05,05,03,04,10.10
2013,05,05,03,05,10.10
2013,05,05,03,06,10.10
2013,05,05,03,07,10.10
2013,05,05,03,08,10.10
2013,05,05,03,09,10.10
2013,05,05,03,10,10.10
2013,05,05,03,11,10.10
2013,05,05,03,12,10.10
2013,05,05,03,13,10.10
2013,05,05,03,14,10.10
2013,05,05,03,15,10.10
2013,05,05,03,16,10.10
2013,05,05,03,17,10.10
2013,05,05,03,18,10.10
2013,05,05,03,19,10.10
2013,05,05,03,20,10.10
2013,05,05,03,21,10.10
2013,05,05,03,22,10.10
2013,05,05,03,23,10.10
2013,05,05,03,24,10.10
2013,05,05,03,25,10.10
2013,05,05,03,26,10.00
2013,05,05,03,27,9.90
2013,05,05,03,28,9.90
2013,05,05,03,29,9.90
2013,05,05,03,30,9.90
2013,05,05,03,31,9.90
2013,05,05,03,32,9.90
2013,05,05,03,33,9.90
2013,05,05,03,34,9.90
2013,05,05,03,35,9.90
2013,05,05,03,36,9.90
2013,05,05,03,37,9.90
2013,05,05,03,38,9.90
2013,05,05,03,39,9.90
2013,05,05,03,40,9.90
2013,05,05,03,41,9.90
2013,05,05,03,42,9.90
2013,05,05,03,43,9.90
2013,05,05,03,44,9.90
2013,05,05,03,45,9.90
2013,05,05,03,46,9.90
2013,05,05,03,47,9.90
2013,05,05,03,48,9.90
2013,05,05,03,49,9.90
2013,05,05,03,50,9.90
2013,05,05,03,51,9.90
2013,05,05,03,52,9.90
2013,05,05,03,53,9.90
2013,05,05,03,54,9.90
2013,05,05,03,55,9.90
2013,05,05,03,56,9.80
2013,05,05,03,57,9.80
2013,05,05,03,58,9.80
2013,05,05,03,59,9.80
2013,05,05,04,00,9.80
2013,05,05,04,01,9.70
2013,05,05,04,02,9.70
2013,05,05,04,03,9.70
2013,05,05,04,04,9.70
2013,05,05,04,05,9.70
2013,05,05,04,06,9.70
2013,05,05,04,07,9.70
2013,05,05,04,08,9.70
2013,05,05,04,09,9.60
2013,05,05,04,10,9.60
2013,05,05,04,11,9.60
2013,05,05,04,12,9.60
2013,05,05,04,13,9.60
2013,05,05,04,14,9.50
2013,05,05,04,15,9.50
2013,05,05,04,16,9.50
2013,05,05,04,17,9.50
2013,05,05,04,18,9.50
2013,05,05,04,19,9.50
2013,05,05,04,20,9.50
2013,05,05,04,21,9.50
2013,05,05,04,22,9.50
2013,05,05,04,23,9.50
2013,05,05,04,24,9.50
2013,05,05,04,25,9.50
2013,05,05,04,26,9.50
2013,05,05,04,27,9.50
2013,05,05,04,28,9.50
2013,05,05,04,29,9.50
2013,05,05,04,30,9.50
2013,05,05,04,31,9.50
2013,05,05,04,32,9.40
2013,05,05,04,33,9.40
2013,05,05,04,34,9.40
2013,05,05,04,35,9.40
2013,05,05,04,36,9.40
2013,05,05,04,37,9.40
2013,05,05,04,38,9.40
2013,05,05,04,39,9.40
2013,05,05,04,40,9.40
2013,05,05,04,41,9.40
2013,05,05,04,42,9.40
2013,05,05,04,43,9.40
2013,05,05,04,44,9.40
2013,05,05,04,45,9.30
2013,05,05,04,46,9.30
2013,05,05,04,47,9.30
2013,05,05,04,48,9.30
2013,05,05,04,49,9.30
2013,05,05,04,50,9.30
2013,05,05,04,51,9.30
2013,05,05,04,52,9.30
2013,05,05,04,53,9.30
2013,05,05,04,54,9.30
2013,05,05,04,55,9.20
2013,05,05,04,56,9.20
2013,05,05,04,57,9.20
2013,05,05,04,58,9.20
2013,05,05,04,59,9.20
2013,05,05,05,00,9.20
2013,05,05,05,01,9.20
2013,05,05,05,02,9.20
2013,05,05,05,03,9.20
2013,05,05,05,04,9.10
2013,05,05,05,05,9.10
2013,05,05,05,06,9.10
2013,05,05,05,07,9.10
2013,05,05,05,08,9.10
2013,05,05,05,09,9.10
2013,05,05,05,10,9.10
2013,05,05,05,11,9.00
2013,05,05,05,12,9.00
2013,05,05,05,13,9.00
2013,05,05,05,14,9.00
2013,05,05,05,15,9.00
2013,05,05,05,16,9.00
2013,05,05,05,17,9.00
2013,05,05,05,18,9.00
2013,05,05,05,19,8.90
2013,05,05,05,20,8.90
2013,05,05,05,21,8.90
2013,05,05,05,22,8.90
2013,05,05,05,23,8.90
2013,05,05,05,24,8.90
2013,05,05,05,25,8.90
2013,05,05,05,26,8.80
2013,05,05,05,27,8.80
2013,05,05,05,28,8.80
2013,05,05,05,29,8.80
2013,05,05,05,30,8.80
2013,05,05,05,31,8.80
2013,05,05,05,32,8.80
2013,05,05,05,33,8.80
2013,05,05,05,34,8.70
2013,05,05,05,35,8.70
2013,05,05,05,36,8.70
2013,05,05,05,37,8.70
2013,05,05,05,38,8.70
2013,05,05,05,39,8.80
2013,05,05,05,40,8.80
2013,05,05,05,41,8.80
2013,05,05,05,42,8.80
2013,05,05,05,43,8.80
2013,05,05,05,44,8.80
2013,05,05,05,45,8.80
2013,05,05,05,46,8.80
2013,05,05,05,47,8.80
2013,05,05,05,48,8.90
2013,05,05,05,49,8.90
2013,05,05,05,50,8.90
2013,05,05,05,51,8.90
2013,05,05,05,52,8.90
2013,05,05,05,53,8.90
2013,05,05,05,54,8.90
2013,05,05,05,55,8.90
2013,05,05,05,56,8.90
2013,05,05,05,57,8.80
2013,05,05,05,58,8.80
2013,05,05,05,59,8.80
2013,05,05,06,00,8.80
2013,05,05,06,01,8.80
2013,05,05,06,02,8.80
2013,05,05,06,03,8.80
2013,05,05,06,04,8.80
2013,05,05,06,05,8.80
2013,05,05,06,06,8.70
2013,05,05,06,07,8.70
2013,05,05,06,08,8.70
2013,05,05,06,09,8.70
2013,05,05,06,10,8.70
2013,05,05,06,11,8.70
2013,05,05,06,12,8.70
2013,05,05,06,13,8.70
2013,05,05,06,14,8.70
2013,05,05,06,15,8.70
2013,05,05,06,16,8.70
2013,05,05,06,17,8.70
2013,05,05,06,18,8.70
2013,05,05,06,19,8.70
2013,05,05,06,20,8.70
2013,05,05,06,21,8.70
2013,05,05,06,22,8.70
2013,05,05,06,23,8.70
2013,05,05,06,24,8.80
2013,05,05,06,25,8.80
2013,05,05,06,26,8.90
2013,05,05,06,27,8.90
2013,05,05,06,28,9.00
2013,05,05,06,29,9.00
2013,05,05,06,30,9.00
2013,05,05,06,31,9.10
2013,05,05,06,32,9.10
2013,05,05,06,33,9.10
2013,05,05,06,34,9.10
2013,05,05,06,35,9.10
2013,05,05,06,36,9.10
2013,05,05,06,37,9.20
2013,05,05,06,38,9.20
2013,05,05,06,39,9.20
2013,05,05,06,40,9.20
2013,05,05,06,41,9.20
2013,05,05,06,42,9.30
2013,05,05,06,43,9.30
2013,05,05,06,44,9.40
2013,05,05,06,45,9.40
2013,05,05,06,46,9.40
2013,05,05,06,47,9.50
2013,05,05,06,48,9.50
2013,05,05,06,49,9.60
2013,05,05,06,50,9.60
2013,05,05,06,51,9.70
2013,05,05,06,52,9.70
2013,05,05,06,53,9.70
2013,05,05,06,54,9.80
2013,05,05,06,55,9.80
2013,05,05,06,56,9.90
2013,05,05,06,57,9.90
2013,05,05,06,58,9.90
2013,05,05,06,59,9.90
2013,05,05,07,00,10.10
2013,05,05,07,01,10.10
2013,05,05,07,02,10.20
2013,05,05,07,03,10.20
2013,05,05,07,04,10.30
2013,05,05,07,05,10.40
2013,05,05,07,06,10.40
2013,05,05,07,07,10.50
2013,05,05,07,08,10.60
2013,05,05,07,09,10.70
2013,05,05,07,10,10.80
2013,05,05,07,11,10.90
2013,05,05,07,12,10.90
2013,05,05,07,13,11.00
2013,05,05,07,14,11.10
2013,05,05,07,15,11.20
2013,05,05,07,16,11.30
2013,05,05,07,17,11.40
2013,05,05,07,18,11.50
2013,05,05,07,19,11.60
2013,05,05,07,20,11.60
2013,05,05,07,21,11.70
2013,05,05,07,22,11.80
2013,05,05,07,23,11.90
2013,05,05,07,24,12.00
2013,05,05,07,25,12.10
2013,05,05,07,26,12.20
2013,05,05,07,27,12.30
2013,05,05,07,28,12.40
2013,05,05,07,29,12.50
2013,05,05,07,30,12.60
2013,05,05,07,31,12.70
2013,05,05,07,32,12.80
2013,05,05,07,33,12.80
2013,05,05,07,34,12.90
2013,05,05,07,35,13.00
2013,05,05,07,36,13.10
2013,05,05,07,37,13.20
2013,05,05,07,38,13.30
2013,05,05,07,39,13.30
2013,05,05,07,40,13.40
2013,05,05,07,41,13.50
2013,05,05,07,42,13.60
2013,05,05,07,43,13.60
2013,05,05,07,44,13.70
2013,05,05,07,45,13.80
2013,05,05,07,46,13.90
2013,05,05,07,47,14.00
2013,05,05,07,48,14.10
2013,05,05,07,49,14.20
2013,05,05,07,50,14.30
2013,05,05,07,51,14.40
2013,05,05,07,52,14.50
2013,05,05,07,53,14.50
2013,05,05,07,54,14.60
2013,05,05,07,55,14.70
2013,05,05,07,56,14.80
2013,05,05,07,57,14.90
2013,05,05,07,58,15.00
2013,05,05,07,59,15.10
2013,05,05,08,00,15.20
2013,05,05,08,01,15.30
2013,05,05,08,02,15.40
2013,05,05,08,03,15.50
2013,05,05,08,04,15.60
2013,05,05,08,05,15.70
2013,05,05,08,06,15.80
2013,05,05,08,07,15.90
2013,05,05,08,08,16.10
2013,05,05,08,09,16.20
2013,05,05,08,10,16.30
2013,05,05,08,11,16.40
2013,05,05,08,12,16.60
2013,05,05,08,13,16.70
2013,05,05,08,14,16.80
2013,05,05,08,15,16.90
2013,05,05,08,16,17.00
2013,05,05,08,17,17.10
2013,05,05,08,18,17.20
2013,05,05,08,19,17.20
2013,05,05,08,20,17.20
2013,05,05,08,21,17.30
2013,05,05,08,22,17.30
2013,05,05,08,23,17.30
2013,05,05,08,24,17.40
2013,05,05,08,25,17.40
2013,05,05,08,26,17.50
2013,05,05,08,27,17.50
2013,05,05,08,28,17.60
2013,05,05,08,29,17.70
2013,05,05,08,30,17.80
2013,05,05,08,31,17.90
2013,05,05,08,32,17.90
2013,05,05,08,33,17.90
2013,05,05,08,34,18.10
2013,05,05,08,35,18.20
2013,05,05,08,36,18.20
2013,05,05,08,37,18.10
2013,05,05,08,38,18.00
2013,05,05,08,39,17.90
2013,05,05,08,40,17.90
2013,05,05,08,41,17.90
2013,05,05,08,42,17.90
2013,05,05,08,43,17.90
2013,05,05,08,44,17.90
2013,05,05,08,45,17.90
2013,05,05,08,46,18.00
2013,05,05,08,47,18.10
2013,05,05,08,48,18.20
2013,05,05,08,49,18.20
2013,05,05,08,50,18.20
2013,05,05,08,51,18.30
2013,05,05,08,52,18.40
2013,05,05,08,53,18.40
2013,05,05,08,54,18.50
2013,05,05,08,55,18.50
2013,05,05,08,56,18.60
2013,05,05,08,57,18.60
2013,05,05,08,58,18.70
2013,05,05,08,59,18.80
2013,05,05,09,00,18.80
2013,05,05,09,01,18.90
2013,05,05,09,02,18.90
2013,05,05,09,03,18.90
2013,05,05,09,04,18.90
2013,05,05,09,05,18.90
2013,05,05,09,06,18.90
2013,05,05,09,07,18.90
2013,05,05,09,08,19.00
2013,05,05,09,09,19.10
2013,05,05,09,10,19.10
2013,05,05,09,11,19.10
2013,05,05,09,12,19.10
2013,05,05,09,13,19.10
2013,05,05,09,14,19.20
2013,05,05,09,15,19.20
2013,05,05,09,16,19.30
2013,05,05,09,17,19.40
2013,05,05,09,18,19.50
2013,05,05,09,19,19.60
2013,05,05,09,20,19.60
2013,05,05,09,21,19.70
2013,05,05,09,22,19.80
2013,05,05,09,23,19.80
2013,05,05,09,24,19.90
2013,05,05,09,25,19.90
2013,05,05,09,26,19.90
2013,05,05,09,27,19.90
2013,05,05,09,28,19.90
2013,05,05,09,29,19.90
2013,05,05,09,30,19.90
2013,05,05,09,31,19.90
2013,05,05,09,32,19.90
2013,05,05,09,33,20.00
2013,05,05,09,34,20.10
2013,05,05,09,35,20.10
2013,05,05,09,36,20.10
2013,05,05,09,37,20.10
2013,05,05,09,38,20.10
2013,05,05,09,39,20.10
2013,05,05,09,40,20.20
2013,05,05,09,41,20.20
2013,05,05,09,42,20.20
2013,05,05,09,43,20.20
2013,05,05,09,44,20.30
2013,05,05,09,45,20.40
2013,05,05,09,46,20.50
2013,05,05,09,47,20.50
2013,05,05,09,48,20.60
2013,05,05,09,49,20.70
2013,05,05,09,50,20.70
2013,05,05,09,51,20.80
2013,05,05,09,52,20.80
2013,05,05,09,53,20.90
2013,05,05,09,54,21.00
2013,05,05,09,55,21.10
2013,05,05,09,56,21.10
2013,05,05,09,57,21.20
2013,05,05,09,58,21.30
2013,05,05,09,59,21.40
2013,05,05,10,00,21.50
2013,05,05,10,01,21.60
2013,05,05,10,02,21.60
2013,05,05,10,03,21.60
2013,05,05,10,04,21.60
2013,05,05,10,05,21.70
2013,05,05,10,06,21.80
2013,05,05,10,07,21.80
2013,05,05,10,08,21.80
2013,05,05,10,09,21.90
2013,05,05,10,10,22.00
2013,05,05,10,11,22.00
2013,05,05,10,12,22.10
2013,05,05,10,13,22.20
2013,05,05,10,14,22.20
2013,05,05,10,15,22.20
2013,05,05,10,16,22.30
2013,05,05,10,17,22.30
2013,05,05,10,18,22.30
2013,05,05,10,19,22.30
2013,05,05,10,20,22.30
2013,05,05,10,21,22.30
2013,05,05,10,22,22.40
2013,05,05,10,23,22.50
2013,05,05,10,24,22.60
2013,05,05,10,25,22.70
2013,05,05,10,26,22.70
2013,05,05,10,27,22.70
2013,05,05,10,28,22.60
2013,05,05,10,29,22.50
2013,05,05,10,30,22.50
2013,05,05,10,31,22.50
2013,05,05,10,32,22.40
2013,05,05,10,33,22.40
2013,05,05,10,34,22.40
2013,05,05,10,35,22.30
2013,05,05,10,36,22.30
2013,05,05,10,37,22.30
2013,05,05,10,38,22.20
2013,05,05,10,39,22.30
2013,05,05,10,40,22.30
2013,05,05,10,41,22.50
2013,05,05,10,42,22.50
2013,05,05,10,43,22.60
2013,05,05,10,44,22.70
2013,05,05,10,45,22.90
2013,05,05,10,46,23.00
2013,05,05,10,47,23.10
2013,05,05,10,48,23.20
2013,05,05,10,49,23.30
2013,05,05,10,50,23.30
2013,05,05,10,51,23.40
2013,05,05,10,52,23.40
2013,05,05,10,53,23.50
2013,05,05,10,54,23.60
2013,05,05,10,55,23.40
2013,05,05,10,56,23.40
2013,05,05,10,57,23.40
2013,05,05,10,58,23.50
2013,05,05,10,59,23.60
2013,05,05,11,00,23.60
2013,05,05,11,01,23.70
2013,05,05,11,02,23.70
2013,05,05,11,03,23.70
2013,05,05,11,04,23.70
2013,05,05,11,05,23.80
2013,05,05,11,06,23.90
2013,05,05,11,07,23.90
2013,05,05,11,08,23.90
2013,05,05,11,09,23.90
2013,05,05,11,10,23.80
2013,05,05,11,11,23.80
2013,05,05,11,12,23.70
2013,05,05,11,13,23.70
2013,05,05,11,14,23.70
2013,05,05,11,15,23.70
2013,05,05,11,16,23.80
2013,05,05,11,17,23.80
2013,05,05,11,18,23.90
2013,05,05,11,19,24.10
2013,05,05,11,20,24.10
2013,05,05,11,21,24.20
2013,05,05,11,22,24.20
2013,05,05,11,23,24.20
2013,05,05,11,24,24.20
2013,05,05,11,25,24.20
2013,05,05,11,26,24.20
2013,05,05,11,27,24.20
2013,05,05,11,28,24.20
2013,05,05,11,29,24.20
2013,05,05,11,30,24.20
2013,05,05,11,31,24.20
2013,05,05,11,32,24.30
2013,05,05,11,33,24.20
2013,05,05,11,34,24.20
2013,05,05,11,35,24.20
2013,05,05,11,36,24.10
2013,05,05,11,37,24.10
2013,05,05,11,38,24.10
2013,05,05,11,39,24.10
2013,05,05,11,40,24.10
2013,05,05,11,41,24.10
2013,05,05,11,42,24.10
2013,05,05,11,43,24.10
2013,05,05,11,44,24.10
2013,05,05,11,45,24.10
2013,05,05,11,46,24.10
2013,05,05,11,47,24.20
2013,05,05,11,48,24.30
2013,05,05,11,49,24.40
2013,05,05,11,50,24.50
2013,05,05,11,51,24.60
2013,05,05,11,52,24.70
2013,05,05,11,53,24.90
2013,05,05,11,54,24.80
2013,05,05,11,55,24.80
2013,05,05,11,56,24.70
2013,05,05,11,57,24.60
2013,05,05,11,58,24.50
2013,05,05,11,59,24.50
2013,05,05,12,00,24.50
2013,05,05,12,01,24.50
2013,05,05,12,02,24.60
2013,05,05,12,03,24.70
2013,05,05,12,04,24.70
2013,05,05,12,05,24.70
2013,05,05,12,06,24.70
2013,05,05,12,07,24.70
2013,05,05,12,08,24.80
2013,05,05,12,09,24.80
2013,05,05,12,10,24.70
2013,05,05,12,11,24.70
2013,05,05,12,12,24.70
2013,05,05,12,13,24.70
2013,05,05,12,14,24.80
2013,05,05,12,15,24.80
2013,05,05,12,16,24.80
2013,05,05,12,17,24.70
2013,05,05,12,18,24.70
2013,05,05,12,19,24.70
2013,05,05,12,20,24.70
2013,05,05,12,21,24.70
2013,05,05,12,22,24.70
2013,05,05,12,23,24.70
2013,05,05,12,24,24.70
2013,05,05,12,25,24.70
2013,05,05,12,26,24.70
2013,05,05,12,27,24.80
2013,05,05,12,28,24.80
2013,05,05,12,29,24.90
2013,05,05,12,30,24.90
2013,05,05,12,31,24.90
2013,05,05,12,32,25.00
2013,05,05,12,33,25.10
2013,05,05,12,34,25.20
2013,05,05,12,35,25.40
2013,05,05,12,36,25.50
2013,05,05,12,37,25.50
2013,05,05,12,38,25.50
2013,05,05,12,39,25.60
2013,05,05,12,40,25.50
2013,05,05,12,41,25.40
2013,05,05,12,42,25.30
2013,05,05,12,43,25.20
2013,05,05,12,44,25.00
2013,05,05,12,45,24.90
2013,05,05,12,46,24.90
2013,05,05,12,47,24.90
2013,05,05,12,48,25.00
2013,05,05,12,49,25.00
2013,05,05,12,50,25.10
2013,05,05,12,51,25.00
2013,05,05,12,52,24.90
2013,05,05,12,53,24.80
2013,05,05,12,54,24.80
2013,05,05,12,55,24.80
2013,05,05,12,56,24.50
2013,05,05,12,57,24.40
2013,05,05,12,58,24.40
2013,05,05,12,59,24.50
2013,05,05,13,00,24.50
2013,05,05,13,01,24.60
2013,05,05,13,02,24.60
2013,05,05,13,03,24.60
2013,05,05,13,04,24.70
2013,05,05,13,05,24.80
2013,05,05,13,06,24.80
2013,05,05,13,07,24.90
2013,05,05,13,08,25.00
2013,05,05,13,09,25.10
2013,05,05,13,10,25.10
2013,05,05,13,11,25.10
2013,05,05,13,12,25.20
2013,05,05,13,13,25.20
2013,05,05,13,14,25.30
2013,05,05,13,15,25.40
2013,05,05,13,16,25.40
2013,05,05,13,17,25.40
2013,05,05,13,18,25.00
2013,05,05,13,19,24.80
2013,05,05,13,20,24.60
2013,05,05,13,21,24.60
2013,05,05,13,22,24.60
2013,05,05,13,23,24.70
2013,05,05,13,24,24.90
2013,05,05,13,25,25.00
2013,05,05,13,26,25.20
2013,05,05,13,27,25.40
2013,05,05,13,28,25.40
2013,05,05,13,29,25.50
2013,05,05,13,30,25.50
2013,05,05,13,31,25.60
2013,05,05,13,32,25.60
2013,05,05,13,33,25.60
2013,05,05,13,34,25.70
2013,05,05,13,35,25.70
2013,05,05,13,36,25.70
2013,05,05,13,37,25.80
2013,05,05,13,38,26.00
2013,05,05,13,39,26.00
2013,05,05,13,40,26.00
2013,05,05,13,41,26.10
2013,05,05,13,42,26.20
2013,05,05,13,43,26.20
2013,05,05,13,44,26.30
2013,05,05,13,45,26.30
2013,05,05,13,46,26.30
2013,05,05,13,47,26.30
2013,05,05,13,48,26.30
2013,05,05,13,49,26.30
2013,05,05,13,50,26.20
2013,05,05,13,51,26.30
2013,05,05,13,52,26.30
2013,05,05,13,53,26.30
2013,05,05,13,54,26.30
2013,05,05,13,55,26.20
2013,05,05,13,56,26.20
2013,05,05,13,57,26.20
2013,05,05,13,58,26.00
2013,05,05,13,59,26.10
2013,05,05,14,00,26.10
2013,05,05,14,01,26.10
2013,05,05,14,02,26.10
2013,05,05,14,03,26.00
2013,05,05,14,04,26.00
2013,05,05,14,05,26.00
2013,05,05,14,06,26.00
2013,05,05,14,07,26.20
2013,05,05,14,08,26.30
2013,05,05,14,09,26.30
2013,05,05,14,10,26.30
2013,05,05,14,11,26.30
2013,05,05,14,12,26.30
2013,05,05,14,13,26.40
2013,05,05,14,14,26.40
2013,05,05,14,15,26.50
2013,05,05,14,16,26.60
2013,05,05,14,17,26.60
2013,05,05,14,18,26.60
2013,05,05,14,19,26.60
2013,05,05,14,20,26.50
2013,05,05,14,21,26.40
2013,05,05,14,22,26.40
2013,05,05,14,23,26.30
2013,05,05,14,24,26.40
2013,05,05,14,25,26.50
2013,05,05,14,26,26.60
2013,05,05,14,27,26.70
2013,05,05,14,28,26.70
2013,05,05,14,29,26.70
2013,05,05,14,30,26.70
2013,05,05,14,31,26.70
2013,05,05,14,32,26.80
2013,05,05,14,33,26.80
2013,05,05,14,34,26.90
2013,05,05,14,35,27.00
2013,05,05,14,36,27.10
2013,05,05,14,37,27.20
2013,05,05,14,38,27.20
2013,05,05,14,39,27.20
2013,05,05,14,40,27.10
2013,05,05,14,41,26.90
2013,05,05,14,42,26.70
2013,05,05,14,43,26.60
2013,05,05,14,44,26.40
2013,05,05,14,45,26.30
2013,05,05,14,46,26.10
2013,05,05,14,47,26.00
2013,05,05,14,48,25.90
2013,05,05,14,49,25.80
2013,05,05,14,50,25.70
2013,05,05,14,51,25.70
2013,05,05,14,52,25.70
2013,05,05,14,53,25.80
2013,05,05,14,54,25.90
2013,05,05,14,55,25.80
2013,05,05,14,56,25.60
2013,05,05,14,57,25.50
2013,05,05,14,58,25.40
2013,05,05,14,59,25.50
2013,05,05,15,00,25.60
2013,05,05,15,01,25.70
2013,05,05,15,02,25.80
2013,05,05,15,03,25.90
2013,05,05,15,04,25.90
2013,05,05,15,05,25.80
2013,05,05,15,06,25.70
2013,05,05,15,07,25.70
2013,05,05,15,08,25.80
2013,05,05,15,09,25.70
2013,05,05,15,10,25.70
2013,05,05,15,11,25.60
2013,05,05,15,12,25.40
2013,05,05,15,13,25.30
2013,05,05,15,14,25.20
2013,05,05,15,15,25.10
2013,05,05,15,16,25.00
2013,05,05,15,17,25.10
2013,05,05,15,18,25.10
2013,05,05,15,19,25.20
2013,05,05,15,20,25.20
2013,05,05,15,21,25.20
2013,05,05,15,22,25.30
2013,05,05,15,23,25.40
2013,05,05,15,24,25.50
2013,05,05,15,25,25.60
2013,05,05,15,26,25.70
2013,05,05,15,27,25.80
2013,05,05,15,28,25.70
2013,05,05,15,29,25.50
2013,05,05,15,30,25.30
2013,05,05,15,31,25.30
2013,05,05,15,32,25.20
2013,05,05,15,33,25.20
2013,05,05,15,34,25.10
2013,05,05,15,35,25.00
2013,05,05,15,36,24.90
2013,05,05,15,37,25.00
2013,05,05,15,38,25.00
2013,05,05,15,39,25.10
2013,05,05,15,40,25.10
2013,05,05,15,41,25.10
2013,05,05,15,42,25.00
2013,05,05,15,43,25.00
2013,05,05,15,44,24.90
2013,05,05,15,45,24.90
2013,05,05,15,46,25.00
2013,05,05,15,47,25.10
2013,05,05,15,48,25.20
2013,05,05,15,49,25.40
2013,05,05,15,50,25.50
2013,05,05,15,51,25.60
2013,05,05,15,52,25.70
2013,05,05,15,53,25.70
2013,05,05,15,54,25.70
2013,05,05,15,55,25.70
2013,05,05,15,56,25.80
2013,05,05,15,57,25.90
2013,05,05,15,58,25.90
2013,05,05,15,59,26.00
2013,05,05,16,00,26.10
2013,05,05,16,01,26.20
2013,05,05,16,02,26.30
2013,05,05,16,03,26.30
2013,05,05,16,04,26.40
2013,05,05,16,05,26.60
2013,05,05,16,06,26.60
2013,05,05,16,07,26.60
2013,05,05,16,08,26.60
2013,05,05,16,09,26.60
2013,05,05,16,10,26.60
2013,05,05,16,11,26.60
2013,05,05,16,12,26.60
2013,05,05,16,13,26.50
2013,05,05,16,14,26.40
2013,05,05,16,15,26.20
2013,05,05,16,16,26.00
2013,05,05,16,17,25.80
2013,05,05,16,18,25.60
2013,05,05,16,19,25.60
2013,05,05,16,20,25.60
2013,05,05,16,21,25.50
2013,05,05,16,22,25.40
2013,05,05,16,23,25.40
2013,05,05,16,24,25.40
2013,05,05,16,25,25.40
2013,05,05,16,26,25.30
2013,05,05,16,27,25.30
2013,05,05,16,28,25.30
2013,05,05,16,29,25.30
2013,05,05,16,30,25.30
2013,05,05,16,31,25.30
2013,05,05,16,32,25.30
2013,05,05,16,33,25.20
2013,05,05,16,34,25.20
2013,05,05,16,35,25.10
2013,05,05,16,36,25.00
2013,05,05,16,37,24.90
2013,05,05,16,38,24.90
2013,05,05,16,39,24.90
2013,05,05,16,40,24.80
2013,05,05,16,41,24.90
2013,05,05,16,42,24.90
2013,05,05,16,43,25.00
2013,05,05,16,44,25.10
2013,05,05,16,45,25.20
2013,05,05,16,46,25.20
2013,05,05,16,47,25.20
2013,05,05,16,48,25.30
2013,05,05,16,49,25.30
2013,05,05,16,50,25.40
2013,05,05,16,51,25.40
2013,05,05,16,52,25.40
2013,05,05,16,53,25.40
2013,05,05,16,54,25.40
2013,05,05,16,55,25.40
2013,05,05,16,56,25.40
2013,05,05,16,57,25.40
2013,05,05,16,58,25.40
2013,05,05,16,59,25.50
2013,05,05,17,00,25.60
2013,05,05,17,01,25.60
2013,05,05,17,02,25.80
2013,05,05,17,03,25.80
2013,05,05,17,04,25.90
2013,05,05,17,05,26.10
2013,05,05,17,06,26.20
2013,05,05,17,07,26.30
2013,05,05,17,08,26.40
2013,05,05,17,09,26.50
2013,05,05,17,10,26.60
2013,05,05,17,11,26.70
2013,05,05,17,12,26.80
2013,05,05,17,13,26.90
2013,05,05,17,14,27.00
2013,05,05,17,15,27.10
2013,05,05,17,16,27.20
2013,05,05,17,17,27.20
2013,05,05,17,18,27.10
2013,05,05,17,19,27.10
2013,05,05,17,20,27.10
2013,05,05,17,21,27.20
2013,05,05,17,22,27.20
2013,05,05,17,23,27.20
2013,05,05,17,24,27.10
2013,05,05,17,25,27.10
2013,05,05,17,26,27.10
2013,05,05,17,27,27.00
2013,05,05,17,28,26.90